Theta_e
315 315 315 315 315 317 321 324 321 323 323 317 318 318 319 321 320 320 321 322 322 322 321 320 320 320 320 321 322 321 321 320 320 318 321 324 320 320 321 320 320 319 322 324 324 328 329 329 328 328 328 327 330 332 332 332 328 323 322 322 323 323 323 322 321 320 319 321 324 326 330 334 335 335 334 332 331 327 327 329 329 330 331 330 331 333 333 333 333 333 333 334 332 331 331 329 325
314 314 315 315 317 319 322 324 320 320 320 316 319 318 318 320 319 320 321 322 321 321 320 320 321 320 320 320 321 321 321 321 321 320 322 321 319 321 320 321 321 319 321 322 323 326 328 329 329 329 328 328 329 331 331 331 328 324 323 323 324 324 324 323 321 320 318 321 326 330 333 335 336 336 334 332 331 327 325 326 326 326 326 326 327 329 330 330 330 330 331 330 330 329 328 326 321
313 314 318 320 320 321 322 323 319 316 317 315 317 319 318 318 319 320 321 321 321 320 320 320 321 320 320 320 320 321 322 322 322 321 322 320 320 323 321 321 320 319 320 320 322 324 327 328 330 330 329 329 329 331 330 330 329 326 325 325 325 325 325 323 321 319 320 325 329 332 334 336 336 336 334 332 331 329 325 324 323 322 322 321 321 321 322 322 322 322 322 322 321 320 319 317 315
313 313 319 323 322 322 322 322 322 318 316 315 316 319 319 318 319 319 321 321 321 320 320 321 322 321 320 321 322 322 322 322 322 320 323 321 320 322 321 321 321 320 319 320 320 322 326 325 327 330 330 329 329 330 330 330 330 328 328 327 327 327 325 324 321 320 325 328 330 333 335 335 336 336 334 332 331 331 328 325 323 322 321 318 317 317 316 317 316 316 315 315 314 313 312 312 311
314 314 316 321 323 324 323 322 322 318 316 317 316 318 319 318 318 319 320 320 320 320 320 321 322 322 321 321 321 321 322 322 322 320 321 320 319 320 320 321 321 320 320 320 320 321 324 323 324 328 331 329 329 330 330 330 331 330 329 328 328 328 327 325 321 322 327 328 331 335 336 336 335 334 333 332 332 331 330 328 326 324 321 315 313 314 313 313 313 312 312 312 312 311 311 311 310
318 319 317 320 323 323 322 319 319 318 319 320 317 318 319 318 320 320 320 320 321 320 320 320 321 322 321 322 321 321 322 322 321 320 319 318 318 319 319 321 322 321 320 320 319 321 321 321 322 326 329 329 329 330 329 329 330 330 328 328 329 329 328 327 324 323 326 328 332 335 336 336 335 334 332 331 331 330 330 328 326 324 319 313 311 312 311 311 311 311 311 311 311 310 309 308 307
321 324 321 319 322 321 319 319 318 319 321 321 319 318 319 319 320 320 320 320 321 320 319 320 320 321 321 322 321 321 321 319 320 319 318 317 317 317 318 320 322 322 321 320 319 321 320 319 320 322 327 329 329 329 328 328 329 329 327 326 328 329 328 328 325 322 326 330 333 335 335 335 333 332 329 328 330 329 329 327 324 321 315 312 311 311 311 310 310 309 309 308 307 306 306 305 305
319 324 323 321 322 322 319 319 319 320 321 321 319 319 319 320 320 320 321 321 321 321 320 320 320 320 321 321 321 322 320 318 318 318 318 317 317 316 316 317 321 322 321 320 320 320 319 318 318 320 324 327 328 327 326 327 328 329 328 326 328 329 328 328 325 321 327 331 332 334 335 333 331 328 324 323 326 326 325 324 320 316 312 311 310 310 309 308 307 306 305 305 305 304 304 304 304
319 321 323 321 322 323 320 320 320 321 321 320 320 319 320 320 321 320 320 321 321 322 321 321 320 320 321 321 321 322 320 318 318 317 318 317 317 316 316 316 319 322 321 321 320 320 319 318 317 318 322 325 326 325 325 328 330 330 330 328 327 328 327 327 323 320 326 331 331 333 333 331 330 326 322 320 320 319 318 317 315 312 311 310 309 307 305 304 304 304 304 304 304 304 304 304 305
320 320 322 322 321 319 318 319 320 321 320 320 319 319 320 320 320 321 320 321 322 322 321 320 320 320 321 321 321 323 321 318 318 317 317 317 317 316 316 316 318 321 322 321 320 321 320 318 317 317 320 323 324 324 325 328 329 330 331 329 327 326 325 324 323 321 322 328 330 331 330 328 327 324 320 319 316 314 314 312 311 311 309 307 305 304 304 304 304 304 304 304 304 305 305 305 306
323 321 321 321 319 317 317 317 319 319 319 319 320 320 320 320 320 320 321 321 321 321 321 319 319 320 321 321 322 323 321 318 318 317 317 317 317 317 316 316 318 320 322 322 321 321 321 319 317 316 319 321 322 322 324 326 326 327 328 328 326 324 323 321 323 322 321 323 325 326 325 324 323 321 318 317 314 312 312 311 310 309 307 305 304 303 303 303 304 304 304 305 305 306 306 306 307
324 323 321 319 318 318 317 318 318 319 320 319 320 321 320 320 320 320 321 321 321 321 321 320 320 320 320 321 322 322 320 318 318 317 317 317 317 317 316 316 317 319 321 322 322 321 321 321 318 316 317 320 321 321 322 324 323 323 324 324 324 323 322 321 321 322 321 321 321 322 322 320 319 318 316 315 312 310 310 310 309 307 305 304 303 303 303 304 304 305 305 306 307 307 307 307 307
322 322 321 319 320 320 318 318 318 319 320 319 320 320 319 319 320 320 320 320 320 320 321 320 320 319 319 320 321 321 321 318 317 317 317 317 317 316 317 316 316 318 320 321 322 322 321 321 319 317 317 319 321 321 321 323 322 321 322 322 322 322 321 321 321 322 322 322 322 322 321 319 317 315 314 312 310 310 309 309 308 305 304 303 303 303 304 304 305 306 307 307 307 307 307 307 307
322 322 321 320 321 321 319 318 319 319 319 319 320 319 318 319 320 319 319 319 319 320 320 320 319 319 319 320 320 321 321 318 317 317 317 317 316 316 316 316 316 317 318 320 321 322 322 321 321 318 317 319 321 321 320 321 321 321 321 321 322 322 321 321 322 323 323 324 324 322 321 319 316 314 313 311 309 309 308 307 306 304 303 303 303 304 304 306 307 307 308 308 308 308 308 308 307
321 322 320 320 320 320 321 320 319 318 318 320 319 318 319 319 319 318 318 318 318 319 318 318 318 318 319 319 320 321 320 318 317 317 317 317 316 316 316 316 316 316 317 318 319 321 322 322 322 321 319 319 322 323 322 321 319 319 320 320 322 322 321 322 322 323 323 324 324 322 321 319 316 313 312 311 309 308 307 306 304 303 303 303 304 305 306 307 308 308 308 308 308 308 308 308 308
320 322 321 320 319 318 321 321 320 319 319 320 318 318 318 318 318 318 318 318 318 318 318 318 318 317 318 318 319 320 318 318 317 317 317 317 316 316 316 316 316 316 316 317 318 318 320 322 322 324 322 320 321 322 324 325 321 318 318 319 321 322 323 323 322 322 322 322 321 320 319 319 316 313 311 310 308 308 306 304 303 303 303 303 304 306 307 307 308 308 308 308 308 308 308 308 308
319 321 320 320 319 318 321 321 319 318 319 319 318 318 318 318 318 317 317 317 317 317 318 318 318 318 318 318 318 318 317 317 317 317 317 316 317 316 316 316 316 316 316 316 317 317 318 320 321 323 323 321 322 322 324 327 325 320 318 318 320 322 324 324 324 323 322 321 319 316 315 315 313 311 310 309 308 307 305 303 303 303 303 304 305 306 307 307 308 308 308 308 308 308 308 308 308
320 320 320 319 319 318 320 320 318 318 318 318 319 319 318 318 318 318 317 317 317 318 318 318 318 318 317 318 318 317 317 317 317 317 317 316 316 316 316 316 316 316 316 316 316 317 317 318 319 320 321 320 322 323 324 327 327 323 319 318 318 321 323 324 325 324 324 322 317 313 312 312 312 310 309 308 308 307 304 303 303 303 304 305 306 307 307 307 307 307 307 308 308 308 308 308 308
320 320 319 319 319 318 320 319 318 317 318 318 318 318 318 318 318 318 317 317 318 317 318 319 319 319 318 319 318 318 318 317 316 316 316 316 316 316 316 316 316 316 315 316 316 316 316 317 318 318 319 320 321 323 324 326 328 325 323 323 320 320 322 323 324 325 324 322 316 312 312 311 311 310 308 308 308 306 303 303 303 303 304 305 306 307 307 307 307 307 307 307 307 307 307 307 307
319 319 319 319 320 319 320 320 318 318 317 318 318 318 318 318 317 317 317 317 317 317 318 318 319 319 319 319 319 318 318 317 317 316 316 315 315 316 316 316 316 315 315 315 316 316 316 316 317 317 318 319 321 323 323 325 327 326 325 326 324 322 322 322 324 325 323 319 315 311 311 311 310 309 308 308 307 305 303 302 303 303 304 305 306 307 307 306 306 306 306 306 307 307 307 307 307
319 320 318 318 319 318 319 319 318 318 317 318 317 317 317 317 317 317 317 316 316 317 318 318 318 318 318 318 318 318 318 317 316 315 315 315 315 315 315 316 315 315 315 315 315 315 316 316 316 317 317 318 319 321 323 323 326 326 324 324 325 325 323 322 323 324 322 317 315 311 310 311 309 308 308 308 307 304 303 303 303 303 305 306 306 306 306 306 306 306 306 306 306 306 306 306 306
319 320 319 318 318 317 318 318 318 318 317 317 317 317 317 317 317 317 317 316 316 317 317 317 317 317 317 317 317 318 317 316 315 315 315 314 315 315 315 315 315 316 315 315 315 315 315 315 316 316 317 317 318 318 320 322 323 323 324 324 326 326 325 323 322 323 321 318 314 311 310 310 309 308 308 308 307 304 303 303 303 303 305 306 306 306 306 306 306 306 306 306 306 306 306 306 306
318 317 317 318 318 318 318 318 318 318 317 317 317 317 317 318 317 317 317 317 317 317 317 317 317 317 317 317 317 317 317 315 314 314 314 314 314 315 314 315 315 315 315 315 315 315 315 315 315 316 317 317 317 318 318 321 321 322 325 325 325 326 326 325 323 322 321 319 314 311 311 310 309 308 308 308 307 305 303 303 303 303 305 306 306 306 306 306 305 305 305 306 306 306 306 306 306
317 316 316 317 317 318 318 318 318 317 317 317 316 317 317 317 317 317 317 318 318 317 317 317 317 317 317 317 316 317 316 315 314 314 314 314 314 314 314 314 314 314 314 315 315 315 315 315 315 315 316 316 317 317 318 319 320 321 323 323 324 326 325 325 325 323 322 320 315 311 311 310 309 308 308 308 307 305 303 303 303 303 305 306 306 306 306 306 305 305 305 306 306 306 306 306 305
317 316 317 317 317 317 318 317 317 317 317 317 316 316 317 317 316 317 317 317 317 317 317 317 317 317 317 316 317 316 316 314 314 314 314 314 314 314 314 314 314 314 314 315 315 315 315 315 315 314 315 315 316 317 318 318 319 321 321 321 323 324 323 324 325 325 323 320 316 312 311 310 308 308 308 308 307 305 304 303 303 303 304 306 306 306 306 305 305 305 306 306 306 306 306 306 306
316 317 317 317 317 317 317 316 316 317 317 316 316 316 316 316 316 316 316 317 316 316 316 317 316 316 316 316 316 316 315 315 314 314 314 314 314 314 314 314 314 314 314 314 314 315 315 314 315 315 315 315 315 316 317 317 318 319 318 318 321 322 321 320 323 325 322 319 316 313 312 310 308 308 307 308 307 306 304 303 302 303 304 306 306 306 306 305 305 305 305 306 306 306 306 306 306
316 316 316 316 315 315 315 316 316 316 316 316 315 315 316 316 315 315 316 317 316 316 316 316 316 316 316 316 316 316 315 315 315 315 315 314 315 314 314 314 314 314 314 314 314 314 314 314 314 314 315 315 315 315 315 316 316 317 317 317 318 320 320 318 322 324 321 318 316 312 312 311 309 308 307 307 307 306 304 303 303 303 303 305 306 305 305 305 305 305 305 306 306 306 306 306 306
315 314 314 314 315 315 315 315 315 316 315 315 315 315 315 315 314 315 316 316 316 316 316 316 316 316 316 316 316 316 316 316 315 315 315 315 315 314 314 314 314 314 314 314 313 314 313 314 314 314 314 314 314 315 315 315 316 316 316 317 317 318 318 317 321 323 320 317 315 312 313 312 309 308 307 307 307 307 305 304 303 302 303 304 305 305 305 305 305 305 305 306 306 306 306 306 306
314 313 313 313 315 315 316 316 316 316 315 314 314 314 314 315 315 316 316 316 316 316 316 315 316 316 316 316 316 316 316 316 316 316 315 315 315 314 315 315 315 314 314 314 314 313 313 313 313 313 314 314 314 315 314 315 315 315 315 316 316 316 317 316 319 321 318 315 314 313 313 312 311 309 307 307 307 307 306 305 303 302 302 303 305 305 305 305 305 305 305 305 305 306 306 306 306
313 313 313 314 314 315 317 318 316 316 315 313 313 313 314 316 316 317 317 317 317 316 316 315 315 315 316 315 315 316 316 316 316 316 316 316 315 315 315 315 314 315 314 314 314 314 313 313 313 313 313 313 314 314 314 314 314 314 315 315 316 316 316 316 316 318 316 314 314 313 313 312 312 310 308 308 307 307 307 306 304 302 302 302 304 305 305 305 304 305 305 305 305 305 306 306 305
313 314 314 314 314 315 317 318 315 315 314 313 313 312 314 316 316 317 317 317 316 316 315 315 315 315 315 315 315 315 315 315 315 315 316 316 315 315 314 314 313 313 314 314 314 314 313 313 313 313 313 313 313 313 314 314 314 314 314 315 315 315 315 316 316 316 315 314 314 314 313 313 312 311 309 308 307 307 307 307 305 303 302 302 303 304 305 304 304 304 305 305 305 305 306 305 305
314 314 314 315 315 316 318 318 316 315 313 312 313 313 314 316 317 317 317 316 315 315 316 315 315 316 315 315 315 316 315 315 316 315 315 315 315 314 314 314 313 313 313 313 313 313 313 313 314 314 313 313 313 313 313 314 314 314 314 314 314 314 315 315 316 316 315 315 315 314 314 313 312 312 310 308 308 307 307 307 306 304 302 302 302 303 304 304 304 304 304 305 305 305 306 305 305
316 315 315 316 316 316 317 318 318 316 313 313 313 313 315 316 316 317 316 316 315 316 316 316 316 315 316 315 315 316 316 316 316 316 316 315 315 314 314 313 313 313 312 312 312 312 312 312 313 313 313 313 312 312 312 313 313 313 313 314 314 314 314 315 315 315 315 315 315 315 314 314 313 312 311 309 308 307 307 306 307 305 303 302 302 302 304 304 304 304 304 304 305 305 305 305 304
317 317 317 317 317 317 316 318 318 315 313 313 313 313 314 315 315 316 315 315 316 316 316 316 316 315 315 316 316 316 316 316 316 316 316 315 314 314 313 313 312 312 312 312 311 311 311 311 311 312 312 311 311 311 312 311 312 312 313 313 313 314 314 314 315 315 315 315 315 315 315 314 313 312 311 310 308 308 307 306 306 306 304 302 301 302 303 304 304 304 304 304 304 304 304 304 304
317 318 317 317 317 317 316 317 318 316 315 315 314 314 314 314 315 316 316 316 316 316 316 316 315 316 316 316 316 316 316 316 316 316 315 314 313 313 313 312 312 312 311 311 311 311 311 311 311 311 311 311 311 311 311 311 311 311 312 312 313 313 313 314 314 314 314 315 315 315 315 315 314 313 312 311 309 308 307 306 306 306 305 303 301 301 302 303 304 303 303 303 304 304 304 304 303
317 318 317 316 316 316 316 317 318 318 317 316 315 315 315 315 315 316 316 316 316 316 316 316 316 316 316 316 317 317 317 317 316 315 314 313 312 312 312 312 312 312 311 311 311 311 311 311 310 311 311 311 311 311 311 311 311 311 311 312 312 312 313 313 313 313 313 314 314 314 315 315 314 314 313 312 310 308 307 306 306 306 306 303 301 301 301 302 303 303 303 303 303 303 303 303 303
317 317 316 316 315 316 317 317 318 317 316 315 315 315 315 315 315 315 316 316 315 316 316 316 316 316 317 317 317 317 317 317 316 315 314 312 311 311 311 311 312 312 312 312 312 311 311 311 311 311 311 311 310 310 310 310 310 310 310 311 311 311 312 312 312 313 313 313 314 314 314 314 314 314 314 313 312 309 308 307 306 306 305 304 301 301 300 301 302 303 303 303 303 303 303 303 303
316 316 315 316 316 316 317 317 318 317 315 315 315 315 315 315 315 315 316 315 315 316 317 317 317 317 318 317 318 317 317 317 316 316 314 313 312 311 311 311 312 312 312 312 312 312 312 311 311 311 311 311 311 310 310 310 310 309 310 310 310 310 311 311 311 312 313 313 313 314 314 314 314 314 314 314 313 311 309 307 306 306 305 304 302 301 300 300 300 302 302 302 302 302 302 302 303
315 315 315 315 316 316 317 317 317 315 314 314 315 314 314 314 314 315 315 315 316 317 317 317 317 317 318 318 317 317 316 316 315 314 314 313 312 311 311 311 312 312 312 312 312 312 312 312 311 311 311 311 311 311 310 310 309 309 308 308 309 309 309 310 310 311 311 312 312 313 313 314 314 314 314 314 314 313 310 308 306 306 306 305 303 301 300 300 300 300 302 302 302 302 301 301 302
315 315 315 316 316 317 317 317 316 314 314 315 315 314 315 315 315 316 317 317 317 317 317 317 317 318 318 317 317 316 315 315 314 313 313 313 311 310 311 312 312 312 312 312 312 312 312 312 312 311 311 311 311 311 311 310 309 309 308 308 308 308 308 308 309 309 309 310 311 311 312 312 313 314 314 314 315 314 313 310 307 306 306 305 304 302 301 300 300 300 301 302 302 302 301 301 302
316 316 316 316 317 317 317 317 316 315 315 315 315 315 316 317 318 317 317 317 317 317 317 317 318 318 317 317 317 315 314 314 313 313 312 311 310 311 311 311 311 312 312 312 312 312 312 312 312 311 311 311 311 311 311 310 310 309 308 308 308 307 307 307 308 308 308 309 309 309 310 310 311 311 312 313 314 314 314 313 310 307 306 305 304 303 302 300 300 300 300 300 301 302 301 301 302
316 317 317 317 317 317 317 316 316 315 316 315 314 315 317 317 317 318 317 316 317 317 318 318 319 318 317 317 316 314 313 313 312 312 310 309 309 310 310 311 311 311 311 312 312 312 312 312 312 312 311 311 311 311 311 310 310 309 309 308 307 307 306 306 307 307 307 307 308 308 308 308 309 309 309 310 311 312 313 314 313 310 307 305 304 304 302 301 300 300 299 299 300 301 301 301 301
316 318 318 317 316 316 316 316 316 315 315 315 314 315 316 316 316 318 318 317 317 317 318 319 318 317 316 315 314 314 313 313 312 310 309 309 308 308 309 310 310 310 311 311 311 312 311 312 312 312 312 311 311 311 311 311 310 310 309 308 307 306 306 305 305 306 306 306 306 307 307 307 307 308 308 308 309 309 311 312 313 313 311 308 306 304 303 302 301 300 299 299 300 300 300 300 301
317 317 316 317 316 316 316 316 315 315 315 316 315 315 316 316 317 318 318 317 317 317 318 317 317 316 315 313 313 313 312 312 311 310 308 308 307 307 307 308 309 309 310 310 311 311 311 311 311 311 311 311 311 311 311 311 310 310 309 309 308 307 306 305 305 305 305 305 305 305 306 306 306 306 306 307 307 307 308 309 311 312 313 311 308 305 304 303 302 301 299 299 299 299 299 300 301
316 314 314 315 314 314 315 314 314 314 315 316 316 316 316 317 317 317 317 317 317 318 317 316 316 315 313 312 312 312 311 310 309 308 307 306 305 305 305 306 307 308 309 310 310 310 310 311 311 311 311 311 311 311 311 311 311 310 310 309 309 308 306 306 305 305 304 304 304 304 304 305 305 305 305 306 306 306 306 307 308 309 311 312 310 308 305 303 302 301 300 299 299 299 299 299 300
315 313 313 313 314 314 314 314 314 314 315 317 317 316 317 318 317 316 316 317 317 317 316 316 315 313 312 311 311 310 310 308 306 306 305 305 305 305 305 305 306 307 308 308 308 309 309 310 310 310 310 310 310 310 310 311 311 311 310 310 309 308 307 306 305 304 304 304 304 304 304 304 304 304 304 304 305 305 305 305 306 306 307 309 310 310 308 305 302 301 301 300 299 298 298 298 299
313 313 314 314 315 315 314 313 313 314 317 318 317 317 317 318 318 317 316 316 317 316 315 315 314 312 311 310 310 309 307 306 305 305 305 304 304 304 304 305 306 307 307 308 308 308 308 309 309 309 309 309 309 309 310 310 310 310 310 310 310 310 309 308 307 305 304 303 303 303 303 303 303 303 303 304 304 304 304 305 305 305 305 306 308 309 309 307 304 303 302 300 299 298 298 298 298
312 313 313 314 316 315 315 314 314 316 319 318 317 317 317 317 317 317 316 315 315 315 314 313 312 311 310 309 307 306 305 304 304 305 305 304 304 304 304 305 306 307 307 307 307 307 307 308 308 308 308 308 308 308 308 308 309 309 309 310 310 310 309 309 308 307 306 304 303 302 302 302 302 303 303 303 304 304 304 304 304 304 304 304 305 306 307 308 306 304 302 300 299 298 297 297 297
311 312 313 315 317 318 318 318 317 318 319 316 315 317 317 317 317 317 317 316 315 314 313 312 311 310 309 307 305 304 303 302 302 302 302 302 303 303 304 305 305 306 306 306 306 306 306 306 307 307 307 307 307 307 308 308 308 309 309 309 309 309 309 309 309 308 307 305 303 302 302 302 301 302 302 302 303 303 303 302 303 303 303 303 303 304 305 306 306 304 302 301 299 298 297 297 296
312 313 314 316 318 319 319 319 318 319 318 313 313 316 317 317 316 317 317 315 313 312 311 310 309 308 306 305 304 303 302 301 300 299 299 300 301 302 303 303 303 303 303 303 304 304 305 305 305 305 306 306 306 306 307 307 307 308 308 308 308 309 309 309 309 308 307 305 303 302 301 301 301 301 301 301 302 302 302 302 302 301 301 302 302 302 302 303 304 304 303 302 300 299 298 297 296
314 315 315 316 317 318 318 318 318 319 318 314 313 315 317 317 316 316 315 313 311 310 309 307 306 305 304 303 302 302 301 300 299 298 298 299 300 301 301 300 300 300 300 301 302 302 303 303 303 303 303 304 304 305 305 306 306 307 307 307 307 308 308 307 307 307 306 305 304 303 301 300 300 300 300 300 301 301 301 301 301 300 301 301 301 301 301 301 301 302 302 301 300 299 298 297 296
315 314 314 316 316 317 317 318 318 318 318 316 315 316 316 316 315 315 314 311 309 309 307 306 305 304 303 302 301 301 300 299 298 298 299 299 300 299 300 300 300 300 301 301 301 301 301 301 301 301 301 302 302 303 303 304 305 306 306 306 306 306 306 306 306 305 305 305 304 304 302 301 300 299 299 299 300 300 301 300 300 300 300 300 300 300 300 300 300 300 300 300 300 298 297 297 296
313 312 314 314 314 315 316 318 318 317 317 317 317 317 316 316 316 316 313 309 308 307 306 305 305 304 303 302 301 300 299 298 299 299 300 300 300 300 300 301 301 301 301 300 300 299 299 299 300 300 300 300 301 301 302 303 304 304 305 305 305 305 305 305 305 305 305 304 304 303 303 302 301 300 299 299 299 299 299 299 299 299 299 299 299 299 299 299 299 299 299 299 299 298 297 297 296
313 313 313 313 313 313 314 315 316 317 317 318 317 317 317 316 317 316 313 310 308 306 305 305 305 304 304 302 301 300 299 300 300 300 300 300 300 300 300 300 300 300 300 300 299 299 299 299 299 299 299 300 300 301 301 302 302 303 303 303 304 304 304 304 304 304 304 305 304 303 303 302 302 301 300 299 299 299 299 298 298 298 299 298 298 298 298 299 299 299 299 299 298 297 297 297 296
312 312 311 311 313 314 313 314 315 316 318 318 317 316 316 316 316 316 314 311 308 305 305 304 304 304 303 302 301 300 300 300 300 300 299 299 299 299 299 298 299 299 299 299 299 299 299 299 299 299 300 299 299 300 300 300 301 301 301 301 301 302 302 303 303 304 304 304 304 304 303 303 303 302 302 301 300 300 299 299 299 298 298 298 298 298 298 298 298 298 299 298 298 297 296 296 296
310 309 310 311 312 313 315 314 313 316 318 317 318 318 317 316 316 316 314 310 307 306 305 304 303 303 302 302 301 300 299 299 299 299 298 298 298 298 298 298 298 298 298 298 298 298 298 298 298 298 299 299 300 300 300 300 300 300 300 300 300 300 300 300 301 302 303 303 304 304 304 304 303 303 302 302 301 301 300 300 299 299 298 298 297 297 297 297 297 297 298 298 298 297 297 296 296
311 309 311 313 312 312 313 314 314 316 317 317 318 318 317 316 315 314 311 308 307 306 305 304 304 303 302 301 300 299 299 298 298 298 298 298 298 297 297 298 298 298 298 298 298 298 298 298 298 298 299 300 300 300 300 299 299 299 299 300 300 300 300 299 300 300 301 301 302 303 304 304 304 304 303 302 302 302 301 300 300 299 299 298 298 297 297 297 297 297 297 297 297 297 297 297 297
313 312 312 313 313 313 314 315 315 315 315 316 316 316 316 313 312 310 308 307 307 307 306 305 304 302 301 300 299 299 298 298 297 297 297 297 297 297 297 297 297 297 298 298 298 298 299 299 299 299 299 299 298 298 298 298 298 298 298 298 299 299 299 299 299 299 300 300 300 301 301 302 303 304 304 303 303 302 302 301 301 300 300 299 298 297 297 296 296 296 296 296 296 296 296 297 297
Wind_Speed
10 10 9 8 7 7 7 6 6 3 3 5 3 3 2 3 3 5 3 1 1 4 7 6 5 5 5 6 7 10 10 8 6 6 5 4 4 5 4 2 4 7 13 17 19 21 22 22 22 21 20 20 20 21 21 20 18 17 16 15 14 13 11 10 9 8 8 8 7 6 7 8 8 8 9 9 8 7 7 7 7 7 6 5 5 5 5 5 5 6 6 6 6 6 6 6 7
9 8 8 7 5 5 5 2 5 3 4 5 1 1 3 2 2 4 2 4 4 5 7 6 5 6 8 9 9 10 9 7 7 7 8 11 11 9 7 4 6 8 12 16 19 21 23 22 22 22 21 20 20 20 21 20 18 17 16 16 15 13 12 10 9 9 9 8 7 8 9 9 10 9 9 9 8 7 7 7 6 6 5 5 6 7 7 7 8 8 9 9 9 9 9 10 10
7 6 4 5 4 6 6 3 5 4 4 5 1 4 3 3 1 2 3 5 5 5 6 5 5 6 7 8 7 7 5 3 5 6 7 11 9 8 8 6 8 9 12 15 18 21 24 23 23 22 21 20 19 20 20 20 19 18 17 17 15 14 12 11 10 10 9 9 9 11 10 11 11 10 10 10 9 8 8 7 6 6 6 7 8 10 10 11 11 11 12 12 12 12 12 12 11
6 4 2 4 6 6 5 4 4 5 4 4 2 3 3 4 3 4 4 4 4 5 5 4 4 4 5 7 5 6 7 4 4 4 4 8 7 8 8 6 9 10 12 15 17 21 24 24 23 23 22 21 20 20 19 20 20 19 18 17 15 14 13 12 11 10 10 11 12 12 12 13 13 12 12 11 11 9 9 8 8 7 8 10 11 12 12 13 13 13 13 13 13 13 13 12 11
4 3 2 4 6 3 2 4 3 4 5 4 3 3 4 3 4 5 5 6 4 5 4 4 3 2 5 8 5 4 5 4 3 6 6 8 9 8 8 7 10 13 13 14 17 20 24 24 23 23 23 22 21 20 20 20 20 20 19 17 16 15 14 13 12 11 11 12 13 13 13 14 14 13 13 13 12 11 10 10 10 10 11 12 12 12 13 13 13 13 13 13 13 13 12 11 10
2 3 2 4 5 4 3 4 3 5 3 3 5 5 5 5 5 6 7 7 4 4 4 5 5 4 6 7 8 7 5 6 5 8 9 9 9 9 8 7 10 14 14 15 18 20 23 24 23 24 24 23 22 21 21 21 21 21 20 19 17 16 15 14 13 12 13 14 15 15 15 14 14 14 14 13 13 12 12 11 12 12 13 13 12 12 12 12 12 12 12 12 12 11 10 9 9
1 3 3 4 5 3 5 5 4 5 1 2 5 6 7 7 7 7 8 7 2 3 5 5 4 6 7 5 7 7 5 7 7 9 10 9 9 10 9 8 10 14 15 15 19 21 23 23 23 24 24 24 23 22 21 21 21 20 20 19 18 17 16 15 14 14 15 16 16 16 17 16 15 16 15 14 13 14 14 14 14 14 14 12 11 11 11 11 10 10 10 10 9 9 8 7 6
2 3 2 4 3 3 5 5 5 5 1 2 5 6 7 8 9 8 8 6 3 2 5 6 4 5 5 3 5 4 6 8 7 8 9 9 9 9 9 9 10 14 16 16 19 22 22 22 22 23 25 25 24 23 22 21 20 20 20 19 18 18 17 16 15 16 17 17 18 18 18 18 17 17 16 15 15 15 15 15 15 15 13 11 10 10 9 9 8 8 8 7 7 6 6 6 5
2 3 3 4 4 3 5 5 4 4 3 4 5 6 7 7 7 7 8 7 5 5 4 4 5 5 3 3 7 6 7 8 6 7 7 7 8 8 9 8 10 13 17 18 20 22 22 21 21 23 25 25 25 24 22 21 20 20 20 19 18 18 18 17 16 17 19 19 19 20 20 20 19 18 18 16 16 16 15 15 15 13 11 10 9 9 8 7 7 7 7 6 6 6 5 5 5
4 4 3 3 4 4 5 4 2 2 3 4 6 7 6 6 5 6 7 7 5 4 2 2 6 10 8 8 9 6 6 7 6 6 6 7 7 8 8 8 10 12 16 19 21 23 22 21 21 23 24 25 25 25 23 22 21 20 20 19 18 18 18 18 17 18 20 21 21 21 22 21 20 21 19 18 17 15 14 14 13 11 10 9 8 8 7 7 6 6 6 6 6 6 5 5 5
5 4 3 4 4 5 4 4 5 4 4 4 5 3 3 2 3 5 6 7 5 3 2 2 4 9 11 11 10 8 8 8 6 5 5 7 9 9 9 8 11 12 16 19 21 23 23 22 21 23 25 26 26 25 24 23 22 21 21 20 19 19 19 19 20 20 20 22 23 22 23 22 22 22 20 20 18 14 13 13 11 10 9 9 8 7 7 6 6 6 6 6 6 6 6 6 6
5 2 3 4 4 5 5 6 7 7 8 6 1 3 2 1 2 4 5 6 6 6 5 6 2 4 7 8 7 7 10 9 6 6 7 9 10 9 9 9 11 12 15 19 21 23 24 23 22 24 25 26 26 26 25 24 24 22 22 21 21 20 20 20 21 21 21 22 22 22 23 23 22 22 20 19 16 12 12 11 10 10 9 9 8 7 7 7 6 6 6 6 6 6 5 5 6
5 3 3 5 4 5 6 6 6 7 7 2 4 5 3 2 3 5 6 8 9 9 4 6 3 6 8 11 10 9 10 8 6 8 11 12 12 10 9 10 10 13 16 18 21 22 24 24 23 24 26 26 27 27 26 25 25 24 23 22 21 21 21 21 21 21 21 22 22 22 23 23 22 21 19 16 13 12 12 11 10 10 10 9 8 8 7 7 7 6 6 6 5 5 5 5 5
5 4 4 5 4 6 6 6 6 6 5 3 5 4 3 3 4 5 8 10 10 6 2 3 4 6 8 11 9 4 5 6 8 13 15 15 14 12 11 11 11 13 16 17 20 22 24 26 24 24 26 27 28 28 27 26 26 25 25 23 22 22 22 22 22 22 22 22 22 23 23 23 23 20 18 15 12 13 13 12 12 11 11 9 9 8 8 8 7 6 6 6 5 5 5 5 5
5 4 4 5 5 6 4 4 6 5 6 2 4 4 2 5 5 6 7 9 9 6 8 8 5 4 6 8 6 3 5 11 16 19 19 17 16 15 14 13 12 13 16 18 20 22 24 26 25 24 26 28 29 29 28 27 28 27 27 25 24 23 23 22 23 23 23 23 24 24 24 24 23 21 19 15 13 14 13 13 13 12 11 10 10 9 9 8 8 7 6 6 6 6 6 6 5
5 4 4 4 6 6 2 3 5 4 5 4 5 3 3 5 6 7 7 7 11 13 14 11 9 11 13 14 13 14 17 20 22 23 21 20 19 18 17 16 15 15 16 18 20 22 23 26 27 24 25 28 29 30 28 26 27 28 28 27 26 25 24 24 23 23 23 23 24 25 25 24 23 21 19 16 15 15 14 14 14 13 12 11 11 11 10 9 9 8 8 7 7 7 6 6 6
4 4 5 5 6 6 3 3 4 4 7 5 3 3 4 7 4 7 9 11 15 17 17 15 15 18 22 21 20 23 24 23 23 23 22 22 21 21 21 19 19 18 18 19 20 22 23 26 28 27 27 27 28 29 28 27 27 28 29 29 28 27 26 25 25 24 24 24 24 25 24 23 22 21 19 18 17 16 15 15 15 14 13 13 12 12 11 10 10 9 9 8 8 8 8 7 7
5 4 5 5 6 6 4 5 7 7 9 9 6 4 7 10 6 5 8 11 15 19 20 19 18 21 25 24 22 22 20 19 20 20 23 23 22 23 23 22 22 21 21 21 21 22 24 26 28 29 30 28 27 27 27 25 26 28 29 30 30 29 29 28 27 27 26 26 26 25 24 23 22 22 21 20 19 18 17 16 16 16 15 14 14 13 13 12 11 11 10 10 9 9 9 8 8
7 5 6 6 7 8 6 7 10 10 11 12 14 12 11 10 10 8 9 13 14 17 19 18 19 21 22 21 19 19 16 16 19 20 24 25 24 24 24 25 24 23 24 23 22 22 24 26 28 29 31 30 27 27 27 24 24 28 29 28 30 31 31 30 29 29 28 28 27 25 24 24 23 23 23 21 20 18 18 18 18 17 17 15 15 15 14 13 12 12 11 11 11 10 10 9 9
9 7 6 7 8 10 10 9 11 13 14 14 14 15 14 13 12 10 10 14 14 16 18 16 18 18 16 15 15 18 18 17 20 24 25 27 27 25 25 26 26 24 24 24 24 25 25 27 28 28 30 31 29 27 27 26 24 27 28 27 28 30 32 32 31 31 31 29 28 27 25 25 25 25 24 22 20 19 19 20 20 19 18 17 17 16 15 14 13 13 12 12 11 11 10 10 9
5 7 8 9 9 10 11 12 13 13 11 12 15 15 17 16 11 11 12 12 11 15 18 17 19 18 16 16 14 16 21 22 25 28 27 26 26 25 25 25 26 25 24 25 26 26 26 27 28 28 30 32 32 30 29 28 26 26 27 27 25 26 29 31 32 33 33 31 30 28 26 26 27 26 25 23 21 21 22 22 22 21 20 19 18 18 17 15 14 14 13 13 12 11 11 10 10
6 9 13 15 14 13 13 14 12 9 8 10 15 15 17 14 8 12 15 12 12 17 21 22 24 23 21 21 18 15 22 27 28 28 25 23 24 24 24 23 24 25 25 25 24 25 26 27 28 29 30 32 34 34 32 29 29 28 25 24 23 23 25 27 29 30 31 32 32 29 27 28 28 27 26 24 23 23 24 24 24 22 21 21 20 19 18 16 16 15 14 14 13 12 12 11 10
7 11 15 17 16 15 15 15 9 8 10 13 15 17 19 17 14 16 17 18 23 25 26 28 29 27 24 23 20 17 22 27 26 25 24 22 22 22 21 22 23 24 26 24 22 24 26 27 27 29 31 33 34 35 34 31 31 30 24 23 23 22 23 24 25 26 26 28 32 31 28 29 29 28 27 25 25 26 26 26 25 24 23 22 21 21 19 18 18 16 16 15 14 13 12 12 11
9 11 14 17 17 17 18 16 12 10 12 15 17 19 21 20 18 18 20 22 27 30 31 31 30 29 24 22 21 20 23 25 25 24 23 23 21 20 20 21 22 24 25 23 22 23 25 26 26 28 30 33 34 35 37 34 32 30 27 27 26 24 24 22 21 22 22 24 31 32 29 30 29 28 28 27 26 27 28 27 26 25 25 23 22 22 21 19 19 18 17 16 15 14 13 13 12
12 13 15 17 18 18 17 16 15 13 13 15 16 19 23 24 22 23 26 26 29 32 32 29 27 25 21 21 21 21 23 25 24 22 22 22 20 18 20 21 22 24 24 23 22 22 23 25 25 27 29 31 33 35 38 38 35 32 32 33 29 28 30 25 21 19 21 25 31 33 31 31 30 29 30 29 29 29 30 29 28 27 26 25 24 24 22 21 20 19 18 17 16 16 14 14 13
7 10 14 15 16 18 18 18 17 15 15 13 13 19 24 25 21 22 25 23 25 28 27 24 21 20 19 20 21 21 23 24 22 22 22 23 23 22 20 20 22 22 21 22 22 21 20 23 24 26 28 30 32 34 37 39 39 38 38 37 31 31 34 31 25 20 24 30 32 34 33 31 30 31 32 31 31 31 31 30 30 29 27 26 26 26 23 22 21 20 19 19 18 17 16 15 14
7 10 15 17 20 22 22 22 22 19 18 16 14 17 23 23 15 15 18 15 14 16 19 20 18 18 19 19 20 21 23 25 26 26 25 26 28 28 24 23 24 23 22 22 22 20 20 22 23 23 25 28 31 34 36 37 40 41 41 40 36 35 35 34 29 25 30 35 36 37 34 32 32 33 33 33 33 32 32 32 31 30 28 28 28 27 25 23 23 22 21 20 19 18 17 16 15
11 12 15 19 21 23 23 22 23 19 14 14 15 15 22 20 12 18 26 23 17 14 16 19 19 19 20 20 21 21 22 26 29 31 32 31 30 31 29 28 28 27 27 26 24 23 23 24 24 23 23 26 29 32 35 36 38 40 41 42 42 40 38 37 31 28 37 41 40 39 36 34 34 34 35 35 34 34 34 33 32 31 30 30 29 28 27 25 24 23 22 21 21 20 19 17 16
9 9 12 17 17 18 21 21 21 17 8 7 9 10 15 14 14 23 28 25 19 16 16 17 18 19 20 21 22 22 23 24 25 29 34 33 30 30 30 30 30 30 30 29 28 27 27 27 26 25 25 25 27 30 34 36 37 38 40 41 43 44 42 42 36 33 41 44 42 40 38 36 36 36 37 37 36 35 35 34 33 32 31 31 31 30 29 27 26 25 24 23 22 21 20 19 17
8 10 9 12 12 12 17 14 8 9 7 11 8 6 9 11 15 20 18 14 10 11 16 19 18 19 21 22 23 24 26 25 26 26 27 27 28 31 31 28 28 29 29 29 30 30 29 28 28 28 28 27 27 28 31 35 37 38 39 40 42 44 44 45 44 40 41 43 43 42 39 38 38 38 39 39 38 37 36 35 34 33 33 33 32 32 30 29 28 26 25 25 24 23 22 20 19
8 10 6 7 8 7 11 7 7 5 6 13 10 6 8 12 16 17 12 6 5 12 21 23 22 22 22 24 25 26 28 28 28 26 22 21 23 27 30 26 22 23 25 26 28 26 25 27 27 28 28 29 28 28 29 32 35 37 38 40 41 43 44 45 46 45 43 43 44 43 41 41 41 40 41 41 39 38 38 37 35 34 34 34 34 33 32 30 29 28 27 27 26 25 24 22 21
7 8 6 7 7 7 10 6 8 6 4 13 12 6 7 10 13 17 15 10 9 16 25 26 24 24 25 26 25 26 27 26 25 23 21 20 19 20 24 24 20 19 19 21 22 21 21 23 24 26 27 28 29 29 28 29 32 35 37 39 40 42 43 44 46 46 45 45 45 45 44 43 43 42 42 42 41 39 39 38 37 36 36 36 35 35 34 33 32 31 30 29 28 27 26 24 22
7 8 8 8 9 10 7 7 6 4 4 12 14 7 9 9 13 21 25 23 19 21 27 28 27 27 26 25 23 23 23 23 21 19 17 17 16 16 18 20 21 19 17 17 18 17 17 18 21 22 23 25 27 29 29 30 32 35 37 39 40 42 44 45 45 46 46 46 46 47 46 44 44 43 43 43 42 41 40 40 39 38 37 37 37 37 36 36 35 33 32 31 29 28 27 25 24
6 7 9 9 11 10 7 9 6 5 6 9 12 11 12 12 16 24 28 27 23 23 26 27 28 28 25 22 21 20 20 20 18 15 14 15 16 16 15 16 18 18 16 15 15 14 14 15 18 19 19 21 23 26 28 30 32 34 37 39 41 43 44 45 46 46 47 46 47 48 46 44 44 43 43 44 43 42 42 41 40 39 39 38 39 39 38 39 38 36 34 32 31 30 29 27 26
10 10 10 10 11 11 11 11 6 5 10 10 10 13 15 15 16 21 26 25 23 25 27 26 28 28 24 21 19 17 17 16 14 13 14 15 15 14 13 12 12 12 12 12 12 12 12 13 15 16 16 18 19 21 25 28 31 33 36 38 41 42 44 45 45 46 47 47 48 49 45 43 44 43 44 44 44 44 43 43 42 42 40 39 41 41 41 42 41 39 36 34 33 32 31 29 28
17 15 11 12 13 12 14 15 13 14 15 13 13 16 16 16 16 18 24 24 25 29 29 26 25 25 24 20 16 14 12 11 12 13 14 13 10 8 6 5 6 7 9 9 9 10 10 10 12 14 13 14 16 18 22 25 28 31 34 37 39 41 43 44 45 46 46 47 49 47 44 44 45 44 45 45 45 45 45 45 44 44 42 41 42 44 44 44 43 40 38 36 35 34 33 32 30
17 16 12 14 15 13 14 15 15 11 9 11 13 16 17 17 16 18 23 25 25 26 25 22 23 23 22 17 12 9 9 10 12 13 13 13 12 10 9 10 9 9 9 9 9 9 9 9 10 11 12 12 13 16 19 22 24 27 30 33 35 38 41 43 45 46 46 48 49 46 45 46 46 46 46 46 46 46 47 47 46 46 45 43 44 45 45 45 43 41 40 39 37 36 35 34 33
15 13 13 13 12 13 15 16 16 10 7 9 12 16 17 16 17 19 22 23 20 18 16 19 23 21 16 10 6 6 8 10 10 11 13 15 16 13 13 12 11 9 9 10 10 10 10 9 9 10 11 12 12 13 16 19 21 23 26 29 31 34 37 40 43 44 44 47 50 48 48 49 48 48 47 48 48 48 48 49 48 48 48 46 45 46 45 45 45 43 42 41 39 38 37 36 35
13 11 11 11 9 12 14 12 10 5 3 8 13 15 15 17 21 21 21 19 18 18 16 18 22 16 8 3 3 7 9 9 12 13 15 16 16 14 13 12 10 9 8 9 9 10 10 10 10 9 10 11 10 11 13 15 17 19 23 25 28 31 33 36 38 41 42 45 48 50 51 51 51 50 49 50 50 50 50 50 50 50 49 48 47 47 47 47 47 46 45 44 42 40 39 38 38
11 10 9 9 10 12 10 6 5 4 6 11 14 13 12 16 18 16 15 15 15 17 16 20 21 12 6 4 3 6 8 11 13 15 16 15 15 15 16 15 12 12 11 12 13 14 14 14 13 12 11 11 11 10 10 11 14 16 19 21 25 28 30 33 35 37 40 42 44 46 47 49 50 50 51 51 51 52 51 51 51 52 51 50 49 48 48 49 49 48 48 47 45 44 43 42 40
10 11 10 11 12 13 12 10 10 10 11 9 10 12 8 5 6 5 3 6 10 11 15 20 14 6 3 1 5 9 12 14 15 15 15 14 16 17 16 16 16 16 17 17 17 18 18 18 17 16 15 14 13 13 11 9 11 14 15 18 21 24 27 30 32 33 36 38 39 40 42 43 44 46 48 50 51 52 52 52 52 53 53 52 51 50 50 49 50 50 50 49 49 48 46 45 42
9 10 11 14 14 13 14 13 11 9 6 1 5 9 4 2 2 3 5 5 6 9 16 14 2 6 4 8 12 14 17 17 16 15 14 15 17 17 17 17 17 18 18 18 19 19 19 19 19 19 18 17 16 15 14 12 11 11 12 15 18 20 24 26 28 30 32 34 35 36 37 38 39 41 42 45 48 49 51 52 53 55 55 55 53 52 51 51 51 51 51 52 51 50 48 48 45
8 5 5 9 10 11 12 10 8 6 6 2 2 5 6 4 6 9 9 7 8 12 14 4 7 8 9 14 15 17 17 15 15 16 16 16 17 18 19 18 18 18 18 18 18 19 19 19 19 20 20 19 18 18 17 16 14 13 12 13 14 17 20 24 26 28 30 32 33 34 35 35 36 37 38 40 42 44 47 49 52 54 56 57 56 55 53 53 53 52 52 53 53 52 51 50 49
6 3 5 6 7 9 8 7 6 6 9 8 5 7 8 7 6 6 6 6 11 12 3 7 13 15 17 18 19 19 17 15 15 17 18 18 19 20 21 20 19 19 18 17 17 17 18 18 19 20 21 20 19 19 20 20 18 17 15 14 14 14 16 19 21 25 29 31 33 34 34 34 35 35 36 36 37 39 40 43 47 51 55 57 58 58 56 55 54 53 53 54 54 54 54 53 52
2 5 4 4 4 7 6 6 7 6 8 7 6 8 7 8 4 2 5 7 9 3 7 12 15 19 19 18 19 18 17 17 17 18 19 20 21 21 22 22 21 20 19 19 18 17 17 17 18 19 20 20 19 19 20 21 21 20 18 17 16 15 15 16 17 20 24 28 31 32 33 33 34 34 35 35 35 36 36 38 40 45 50 54 57 59 58 56 56 56 56 56 56 56 56 55 53
1 3 1 1 3 5 5 6 7 6 8 8 7 9 6 9 3 4 6 6 3 7 9 11 16 21 20 18 18 16 16 17 18 20 21 21 21 21 21 22 22 22 22 21 20 20 19 18 18 18 18 18 18 18 19 20 21 21 19 19 19 18 17 16 17 18 20 24 28 30 31 31 32 34 34 33 34 34 35 35 37 40 43 48 53 58 59 58 58 58 58 57 56 56 57 57 55
1 1 4 4 6 6 5 6 4 5 8 8 8 14 8 6 1 4 3 3 1 7 8 10 15 20 20 18 16 16 16 17 19 20 20 20 21 21 22 23 23 23 22 21 21 21 21 20 19 19 18 18 17 17 18 18 19 20 20 21 22 21 21 19 19 18 18 20 24 28 30 30 31 32 32 32 33 32 32 33 34 36 39 42 48 54 57 59 61 61 60 58 57 57 58 58 57
1 4 5 6 6 4 4 4 3 5 7 4 3 11 10 6 2 1 3 3 3 6 8 10 13 16 18 17 17 16 16 17 19 19 19 18 19 21 22 24 24 23 22 22 22 22 21 21 21 20 20 20 20 20 20 20 20 20 21 22 23 23 24 23 22 21 18 18 21 24 28 29 30 31 31 31 31 31 31 32 33 34 36 39 43 48 52 57 60 61 61 60 59 59 59 58 57
3 4 4 5 5 4 5 4 4 6 4 2 2 3 7 8 6 5 2 4 8 10 12 13 14 15 16 16 16 16 16 17 19 19 20 20 21 22 23 24 24 23 23 22 22 22 22 22 22 22 22 22 22 21 21 21 21 22 23 24 25 24 25 25 24 23 20 18 19 22 25 27 29 30 31 30 29 30 31 32 33 33 35 36 38 42 45 50 56 58 60 62 61 60 60 59 59
6 4 4 5 6 7 8 7 6 8 2 3 1 2 4 7 6 7 6 6 15 16 17 18 18 15 15 14 14 15 16 17 18 19 21 22 23 24 24 24 23 22 21 20 21 22 22 23 23 23 23 22 22 22 22 22 22 23 24 25 25 25 24 24 24 24 22 19 19 20 22 25 27 29 30 31 30 29 30 31 32 33 34 34 35 38 40 44 50 54 58 60 62 62 61 60 60
7 4 3 5 6 7 8 7 8 9 6 1 2 1 3 4 2 3 5 14 18 17 18 18 17 16 13 13 14 15 16 16 18 20 22 24 24 24 23 22 22 21 21 22 23 23 23 23 23 23 23 22 22 22 23 23 24 25 27 27 26 25 24 23 23 23 23 21 20 20 20 22 24 26 27 29 30 29 28 29 31 33 34 34 34 36 37 40 44 49 54 57 59 61 61 61 60
3 1 3 5 5 6 8 8 7 8 8 5 4 4 5 4 1 4 9 16 16 14 16 15 15 14 12 13 14 13 13 15 18 20 22 23 23 22 22 21 22 22 24 24 24 24 23 22 22 22 23 23 23 23 23 24 25 26 27 26 25 24 24 23 23 23 23 23 23 23 22 22 22 24 24 25 28 29 28 28 29 31 32 33 34 34 35 37 40 44 49 53 56 58 59 61 61
2 2 3 2 2 3 6 8 7 6 9 8 6 8 8 7 8 8 9 13 12 10 12 13 13 12 13 13 12 11 13 16 19 21 21 21 20 20 20 21 23 24 24 24 24 23 23 23 23 23 23 24 26 27 28 30 30 28 25 24 24 24 24 23 23 23 23 24 24 24 25 24 23 23 22 22 25 28 27 27 28 29 30 31 33 34 34 35 36 40 44 47 51 54 57 59 60
1 3 1 1 1 1 3 6 6 7 10 8 8 12 11 8 6 4 11 10 8 9 10 11 12 13 13 13 12 14 16 17 19 19 19 18 18 19 19 20 21 22 22 23 23 24 24 24 25 26 27 28 29 31 33 33 32 30 27 25 24 24 24 24 23 23 23 23 24 24 24 25 24 24 23 23 25 26 25 26 26 27 28 30 31 33 34 34 35 37 40 42 46 49 53 57 59
1 1 2 2 3 3 4 4 3 6 9 7 8 12 11 8 7 3 6 7 8 9 8 9 10 10 10 10 11 14 15 16 17 17 17 17 18 18 18 18 19 20 21 22 23 24 25 26 27 28 29 29 30 31 31 31 30 30 29 28 27 26 25 24 24 23 23 22 23 23 23 23 24 24 25 25 26 26 25 26 26 26 27 28 29 31 32 34 35 36 37 39 42 45 49 53 55
1 1 1 1 2 3 3 1 0 4 8 6 5 8 7 6 9 8 2 8 9 8 7 6 6 7 6 6 7 9 11 13 14 14 15 16 16 17 17 18 19 19 21 22 23 24 25 26 27 27 28 28 29 29 29 28 28 27 27 28 28 28 27 26 25 24 24 23 23 23 24 23 23 23 24 25 26 26 26 26 26 26 26 27 28 29 30 32 34 35 36 37 39 42 45 49 51
3 3 2 1 0 0 1 2 2 3 6 6 5 6 6 4 6 3 6 10 8 8 7 5 4 5 4 4 4 5 7 9 10 11 12 13 14 15 16 17 18 18 19 20 21 22 23 24 25 26 26 27 27 27 26 26 26 25 25 26 28 29 29 28 28 27 26 25 24 24 24 24 24 23 23 24 25 25 26 26 26 26 26 26 26 27 28 30 32 34 35 36 38 39 43 46 47
6 5 4 5 4 3 5 7 5 5 6 7 7 9 7 2 3 5 8 7 6 7 6 5 5 4 3 2 1 2 3 5 6 7 8 10 11 12 13 14 15 16 17 17 18 19 20 21 23 25 26 26 25 24 23 23 23 23 23 23 24 26 27 28 29 29 29 28 27 26 25 24 24 23 23 23 24 24 25 25 26 27 28 27 27 27 27 28 30 32 33 35 36 38 40 42 44
Wind_Direction
301 306 309 310 315 314 285 279 283 223 238 274 269 295 67 57 352 296 279 25 3 55 19 338 312 284 276 304 323 323 299 280 312 327 338 344 324 346 332 245 231 224 208 215 214 208 206 206 208 211 211 204 197 196 196 195 196 198 197 196 200 203 207 213 218 223 222 218 208 199 195 196 196 190 192 192 188 182 176 174 177 185 197 209 212 215 220 228 236 245 250 255 256 260 258 262 289
302 306 312 315 307 290 279 279 290 259 249 275 254 35 38 51 265 265 317 31 15 21 352 322 301 270 266 287 290 293 284 253 281 318 316 309 311 315 301 251 239 224 209 216 216 211 209 208 209 211 212 210 203 202 201 198 199 200 199 201 203 207 212 217 219 225 225 215 201 199 198 200 202 197 203 209 204 197 196 194 198 206 219 234 242 244 246 250 252 255 257 261 264 266 266 270 282
300 306 312 307 269 254 276 253 265 291 285 291 25 75 23 320 309 329 5 26 10 353 330 315 285 264 257 257 266 279 288 270 284 306 301 312 314 295 295 253 232 222 214 216 217 214 212 213 210 211 213 213 208 207 206 201 202 202 203 205 208 212 214 216 218 225 220 205 202 203 200 208 210 208 215 218 216 214 213 212 218 229 247 259 263 262 259 259 260 262 264 266 270 272 275 277 279
294 300 266 274 258 240 258 243 261 296 291 302 353 74 33 322 347 356 355 358 342 324 309 306 275 250 252 257 288 277 277 297 296 315 295 307 309 284 291 259 231 225 221 217 217 214 215 218 213 212 214 214 212 211 210 204 204 206 208 210 212 214 214 215 218 221 210 201 206 205 204 215 217 218 226 227 225 226 228 230 235 248 268 276 272 268 265 264 264 266 269 271 273 275 277 278 279
300 302 250 246 263 270 275 264 268 269 282 323 321 6 20 343 332 333 328 319 309 301 283 269 265 250 263 265 280 271 299 324 296 319 304 296 303 289 288 266 232 227 229 218 216 215 216 221 217 213 214 216 214 213 213 210 209 211 211 213 214 214 214 215 220 218 205 205 208 207 209 217 222 227 234 235 234 235 238 242 247 258 277 284 275 267 265 263 264 266 269 271 273 275 276 276 275
335 296 263 233 262 302 284 263 264 256 283 333 302 323 347 348 348 330 313 304 284 276 256 240 265 290 276 248 240 246 291 316 304 311 305 299 299 289 286 269 236 230 233 220 216 215 217 222 220 216 215 217 216 215 217 216 215 216 217 216 215 215 216 217 223 218 205 209 209 211 216 220 226 235 242 242 243 244 247 253 256 265 278 282 272 265 263 261 263 263 265 267 270 271 273 273 271
263 247 231 226 239 251 261 263 281 285 12 26 305 314 322 332 339 320 305 300 239 218 222 223 270 290 279 245 236 243 270 296 299 300 303 303 294 286 282 267 243 232 231 221 216 215 220 223 221 218 216 218 217 217 219 219 219 218 222 220 216 217 219 221 225 217 206 208 210 215 221 227 232 237 245 246 249 252 256 262 266 272 277 275 266 261 259 259 259 259 261 260 262 262 263 265 264
194 243 242 252 233 204 259 273 279 292 6 1 299 299 305 318 322 309 299 294 261 236 219 219 247 270 274 242 252 266 287 306 310 305 310 302 292 283 275 265 247 234 229 224 219 216 222 225 222 219 216 219 219 220 220 219 220 219 222 222 219 221 223 225 224 215 206 208 213 218 224 231 237 242 248 250 251 254 258 263 269 273 271 266 257 253 251 251 253 253 254 251 252 252 253 255 256
208 250 245 261 264 234 262 266 268 280 289 308 295 290 293 300 308 298 292 284 277 284 241 216 217 242 295 272 265 266 275 311 329 317 322 310 302 287 273 260 244 236 230 225 221 220 226 227 222 219 216 220 221 222 222 218 219 219 222 223 223 224 226 227 223 213 209 212 216 221 227 233 241 250 257 260 258 257 260 261 264 265 260 253 245 242 240 240 241 243 246 246 247 248 250 253 256
222 240 264 272 271 265 267 267 291 302 295 311 297 298 301 294 292 285 287 289 292 299 254 199 216 239 281 292 284 264 260 314 327 317 334 327 323 301 280 258 241 235 232 228 225 223 228 230 224 220 217 220 223 224 223 219 219 219 221 224 225 227 228 226 221 214 211 216 219 225 233 239 247 256 263 266 266 265 264 257 254 252 244 239 234 233 231 230 233 235 240 244 247 251 255 257 259
236 223 270 279 266 274 296 315 322 321 317 306 294 308 324 313 290 276 270 281 289 286 237 197 226 244 267 279 281 265 266 306 310 312 330 322 329 314 292 264 244 235 231 231 229 227 229 231 226 221 219 220 224 226 225 223 224 223 224 225 226 229 229 224 219 218 217 220 225 231 239 245 250 258 265 268 270 269 261 252 246 240 232 230 227 225 224 226 230 233 239 244 249 252 255 257 259
256 226 242 273 287 295 318 319 313 316 310 295 301 99 88 111 250 276 277 286 288 287 253 206 259 295 272 275 281 266 278 300 292 300 315 313 319 314 301 278 252 240 233 231 231 231 231 233 229 223 221 222 224 227 226 226 228 228 228 228 229 230 229 225 222 223 224 226 231 236 242 249 253 258 264 270 270 262 252 248 241 235 229 225 222 221 223 228 233 235 238 243 248 250 252 253 254
266 303 273 280 299 300 306 303 302 308 306 327 86 111 134 225 249 293 307 300 287 292 268 187 270 307 281 284 287 271 271 285 285 300 311 310 310 306 301 289 265 248 239 234 233 233 232 234 233 225 222 223 225 228 228 227 229 231 230 230 230 231 230 229 228 229 230 233 236 240 245 252 257 259 263 268 261 248 244 240 236 233 229 224 221 223 228 232 236 239 240 242 245 248 251 250 250
263 307 286 289 294 285 286 284 298 304 307 42 84 126 176 243 264 298 299 294 294 311 324 225 267 288 280 277 279 265 224 257 297 306 306 306 306 301 294 288 275 257 247 242 237 234 231 233 234 227 223 223 226 230 230 228 229 230 231 232 232 233 233 233 233 235 236 238 242 247 250 255 260 262 263 263 250 239 236 233 231 228 224 223 224 226 230 234 236 237 239 240 243 248 251 253 252
257 298 273 276 282 279 260 264 301 302 300 347 95 122 210 246 247 278 278 282 303 322 306 285 245 246 288 283 301 343 257 277 298 301 302 302 301 297 292 286 278 264 253 248 242 239 234 231 232 228 224 223 224 228 230 230 230 230 231 232 232 234 234 235 236 238 240 242 246 251 254 257 262 264 262 256 243 234 231 229 227 222 220 220 223 226 229 229 229 230 234 237 240 244 246 250 252
248 278 260 264 276 281 246 251 294 282 308 10 112 140 275 265 229 254 263 267 292 295 289 277 239 245 272 279 286 289 281 287 294 296 298 296 295 294 289 283 275 267 258 252 246 243 238 232 229 227 225 224 224 225 227 228 229 230 231 231 232 234 235 237 238 239 242 245 248 252 255 257 259 259 255 249 238 232 231 228 223 219 218 219 222 224 224 223 223 224 227 231 233 236 237 239 243
235 253 252 262 264 274 270 262 295 298 318 344 138 166 293 297 232 239 263 265 277 281 276 266 253 254 265 271 273 278 284 289 291 293 293 292 291 289 286 281 274 268 262 256 252 247 240 235 231 228 228 227 225 224 224 225 229 230 230 231 232 233 235 237 239 240 243 246 250 252 253 253 252 250 247 242 235 230 230 226 221 218 217 218 220 221 220 219 219 222 223 226 228 229 230 230 233
215 236 250 258 262 281 300 287 304 307 301 304 300 300 298 295 280 264 274 269 269 274 272 268 259 254 262 272 277 283 289 289 288 290 290 290 288 286 284 282 277 272 267 260 255 250 244 240 236 232 231 231 226 222 222 223 227 230 230 231 232 233 235 237 238 241 243 247 250 250 250 247 245 245 242 237 232 230 229 224 219 217 216 217 218 218 217 217 219 221 222 223 224 225 227 227 228
226 250 261 256 263 285 299 292 297 297 292 298 303 303 295 290 287 283 281 278 281 281 276 273 268 261 261 270 279 283 285 284 286 288 288 288 286 285 282 281 279 273 269 266 261 256 249 245 241 237 236 235 228 223 222 220 224 230 229 228 231 232 234 237 238 241 243 245 248 247 246 245 243 242 239 234 231 231 228 223 218 216 215 214 215 216 216 218 220 220 221 222 223 225 226 227 228
236 241 258 260 267 279 280 283 286 286 291 295 298 300 292 284 279 269 268 278 283 277 274 275 275 275 272 274 282 280 279 282 284 287 287 286 285 283 280 278 279 277 272 269 265 259 253 249 247 243 240 238 233 226 224 222 222 227 228 227 229 231 234 236 238 241 243 243 245 244 242 242 241 239 237 232 229 230 227 222 219 217 215 214 214 216 216 218 220 221 222 222 223 224 226 228 228
239 224 248 271 283 284 274 281 284 282 291 293 295 295 286 286 278 255 261 278 275 266 272 276 277 286 291 294 300 283 277 281 285 289 289 286 285 283 280 277 277 279 276 270 264 260 256 253 251 247 244 241 238 233 229 226 225 226 229 228 226 229 233 235 236 238 241 243 243 241 238 238 238 236 234 231 228 228 226 222 220 218 215 214 214 215 217 219 221 222 222 224 224 225 227 228 228
254 238 248 267 276 278 277 285 281 275 288 290 287 285 284 290 271 251 259 262 261 267 277 282 283 290 293 294 299 280 272 281 288 290 291 290 288 284 282 280 276 273 273 271 266 263 260 255 252 250 247 244 242 240 237 233 229 228 228 227 225 227 230 233 234 234 237 240 241 239 235 234 234 233 233 231 228 228 227 223 221 220 217 216 215 216 218 218 221 223 224 225 225 226 227 227 226
250 259 256 265 269 271 279 286 276 265 276 278 279 283 288 286 273 267 262 254 259 267 274 279 283 287 289 290 287 270 268 281 288 289 290 291 289 286 283 280 276 271 272 273 267 264 261 256 252 250 250 247 245 243 241 237 234 232 228 228 227 226 227 230 233 231 232 234 238 239 234 233 232 231 233 231 228 229 229 226 224 221 220 218 216 218 219 219 222 224 224 226 226 228 227 226 224
242 269 270 272 273 273 278 283 277 265 265 270 276 282 282 277 279 280 268 263 267 270 272 275 282 285 286 284 278 268 269 280 286 288 289 289 288 286 282 277 274 271 271 272 268 263 260 256 252 249 250 250 248 245 243 240 238 236 231 230 229 228 228 228 231 230 228 230 237 239 236 234 234 232 234 233 229 230 231 229 226 223 222 220 217 220 220 220 223 224 225 226 227 227 226 225 223
244 259 272 276 275 275 279 280 274 262 259 266 271 272 270 272 281 282 275 271 269 271 275 275 279 282 280 277 274 270 274 283 286 288 289 289 290 284 279 275 271 270 270 272 271 267 263 259 254 250 249 250 250 248 246 243 242 240 236 234 231 233 233 231 229 226 228 233 237 239 238 237 237 234 234 235 232 231 233 231 228 226 224 221 218 221 222 222 225 225 225 226 226 226 225 224 222
262 268 280 285 283 283 283 280 272 260 256 258 260 264 268 275 283 279 272 269 266 268 273 276 277 277 277 276 275 273 278 285 286 288 291 290 290 284 280 279 276 274 275 274 272 271 270 265 260 254 250 248 249 250 249 247 246 244 243 242 237 237 237 235 231 227 234 239 240 241 242 241 238 236 235 236 234 233 234 233 231 228 226 223 220 222 223 223 226 226 226 226 225 225 224 222 222
305 295 291 286 284 284 279 276 270 260 257 251 247 263 274 279 282 274 271 271 265 260 266 278 282 279 279 277 277 277 277 284 288 289 287 284 285 285 285 285 283 285 284 278 275 276 274 271 269 264 257 251 248 248 249 248 248 248 248 247 244 241 240 240 235 232 239 243 245 246 244 242 240 238 237 237 236 235 234 234 233 231 228 226 224 224 224 225 227 227 227 227 226 225 224 222 222
293 295 295 284 281 281 274 270 266 257 254 245 239 262 277 278 263 254 266 275 269 258 267 280 285 283 283 280 278 278 274 281 289 289 287 285 284 287 290 288 285 285 283 280 279 278 274 272 271 269 264 256 250 247 248 248 247 248 250 249 248 245 244 245 239 237 243 245 248 248 244 243 241 239 238 238 238 236 236 235 235 233 231 229 227 225 225 226 227 228 228 227 226 226 225 223 222
285 289 290 285 285 280 273 268 261 252 230 201 218 259 273 266 250 249 261 273 269 257 266 279 285 284 284 282 279 278 275 277 283 285 290 294 292 292 294 291 286 281 278 277 275 272 271 270 269 267 263 258 253 249 248 248 248 248 249 249 249 249 248 248 246 244 247 248 249 249 245 244 242 240 240 239 239 238 238 237 237 235 233 231 229 227 226 226 228 230 229 229 228 227 226 225 224
277 280 273 285 290 278 278 274 245 231 185 159 186 259 275 271 272 274 280 286 272 259 274 285 288 287 285 283 280 278 277 277 279 281 288 295 298 299 300 296 288 282 276 273 271 269 270 268 266 263 259 256 254 251 248 248 249 249 249 249 249 250 250 250 250 250 250 250 250 250 247 244 242 241 240 240 239 239 239 238 237 235 234 233 231 230 228 228 229 230 230 229 229 228 227 225 225
269 278 254 265 277 273 289 280 160 181 169 165 197 257 275 279 287 295 310 319 287 282 287 289 288 285 283 280 279 277 276 276 280 284 286 288 290 294 299 301 292 282 275 270 269 269 268 264 259 256 254 253 253 251 250 249 249 250 250 250 250 250 251 251 251 252 254 254 253 252 250 246 243 241 240 241 240 239 240 239 238 235 234 234 233 232 230 229 230 230 229 229 229 229 229 227 225
258 271 261 248 256 271 287 270 194 210 180 174 201 260 271 271 287 294 303 301 287 287 288 288 286 283 280 279 277 276 278 279 279 285 290 290 286 283 292 302 302 294 283 273 270 265 261 258 254 251 250 250 251 251 251 251 251 251 251 251 251 252 252 252 252 253 256 255 254 254 252 249 246 242 241 241 241 240 240 240 239 236 235 234 234 233 231 230 231 231 230 230 230 230 230 228 226
247 248 263 260 269 281 283 290 267 209 157 189 209 256 276 272 287 291 294 294 291 287 285 287 286 281 278 278 277 275 279 283 284 288 294 296 294 287 288 296 302 305 300 286 279 271 264 260 255 251 251 252 254 254 253 252 253 252 251 251 251 252 252 252 253 254 256 255 255 255 253 251 248 245 243 242 242 241 240 241 240 238 236 234 234 233 231 231 231 231 231 230 231 231 232 230 228
260 251 261 257 262 279 286 301 306 155 179 221 222 243 262 269 281 285 288 291 291 284 281 284 284 281 279 280 280 279 281 285 291 298 301 300 301 299 296 295 298 305 310 304 296 289 280 272 266 260 257 257 256 255 254 253 254 253 252 251 250 250 251 252 252 254 255 255 255 255 254 252 250 248 246 244 244 243 241 241 241 240 237 235 234 233 231 231 232 231 230 230 230 230 231 231 229
279 282 285 279 270 283 292 295 301 247 253 259 249 256 266 271 277 281 283 288 288 282 279 279 279 282 285 285 283 284 287 290 298 306 308 311 313 312 308 302 301 312 322 319 313 306 297 288 281 273 267 263 260 256 254 253 253 253 252 251 251 251 251 252 252 253 254 255 255 255 255 253 251 251 249 246 245 244 243 242 242 241 239 236 235 233 231 230 231 230 230 230 230 230 231 231 229
281 288 291 291 285 285 288 286 288 291 286 277 273 278 281 283 283 281 281 284 281 277 277 278 281 285 284 283 286 290 294 302 316 326 336 347 352 349 346 349 348 353 360 351 338 330 320 309 297 290 283 275 267 262 258 256 254 253 252 251 251 252 252 252 253 252 253 254 255 256 256 255 253 252 250 248 246 245 244 243 243 243 241 237 235 234 232 231 231 230 230 229 229 229 230 229 229
280 285 282 280 281 281 284 283 285 294 290 277 281 286 288 291 287 281 279 277 272 271 278 284 283 278 278 284 290 294 306 324 338 352 7 21 29 37 46 48 42 29 19 9 358 352 344 334 322 311 302 291 279 272 267 265 263 260 259 257 257 256 256 256 255 254 253 252 253 255 255 255 254 252 250 249 247 245 244 244 243 244 242 239 237 236 235 234 234 232 231 231 230 229 229 229 229
277 279 278 276 278 280 280 281 286 293 287 278 283 286 289 291 283 275 272 270 270 275 283 282 275 275 284 295 297 309 328 344 8 26 29 32 35 43 48 47 43 34 19 10 6 3 1 356 349 336 321 312 299 287 280 275 273 272 270 269 267 265 263 261 260 260 259 256 256 258 257 255 254 252 251 249 247 245 243 243 243 244 243 241 239 238 236 236 235 233 232 231 230 230 230 231 230
273 271 271 274 277 281 281 278 281 289 286 284 288 290 289 283 275 270 266 264 270 276 271 266 269 278 297 309 317 333 351 16 37 43 39 37 39 47 57 57 53 46 35 28 25 21 22 18 10 360 344 335 322 304 292 285 281 277 274 274 272 269 268 267 265 265 265 262 261 261 259 258 256 254 252 250 248 246 244 243 243 244 244 242 241 239 237 236 235 234 233 233 232 230 229 230 230
257 257 264 272 274 278 284 286 284 281 275 285 294 292 281 271 265 263 269 266 264 265 261 262 264 267 281 289 332 4 30 40 44 45 40 40 50 61 68 70 71 70 64 59 54 49 45 40 32 23 9 359 347 332 315 295 284 277 275 274 272 270 269 269 269 268 268 266 264 264 263 261 260 259 256 254 251 248 245 243 243 244 245 244 243 241 239 238 237 235 234 234 233 230 228 229 229
252 253 257 265 270 276 286 298 304 296 282 286 305 296 276 258 262 252 225 235 247 245 250 260 255 227 237 224 78 68 62 55 51 45 41 50 60 64 68 71 72 70 64 58 54 53 51 49 45 40 33 23 11 359 347 321 295 284 280 278 277 276 275 274 275 275 275 274 274 274 273 270 268 266 264 261 258 255 251 247 244 244 245 244 244 243 241 241 240 238 237 235 234 233 231 232 230
265 256 254 262 273 283 291 300 308 302 282 360 4 315 286 128 307 260 186 224 257 235 242 257 205 139 142 105 90 76 70 63 56 49 52 61 59 58 63 66 65 62 57 51 47 46 46 46 46 45 43 38 29 20 12 356 330 311 297 289 288 288 286 284 285 285 284 283 283 282 280 279 277 274 271 268 266 262 258 253 249 246 245 245 244 244 243 242 241 240 239 237 236 235 234 233 233
269 273 280 279 283 287 292 299 302 293 284 307 37 302 280 270 273 260 249 268 272 248 248 275 78 95 90 80 71 67 69 63 55 51 52 54 51 52 56 57 58 57 54 51 47 44 42 41 42 42 43 41 36 32 27 20 5 346 329 314 305 298 295 293 292 291 288 287 287 286 285 283 281 279 277 274 270 268 264 259 255 251 248 246 245 244 242 242 242 242 241 240 239 237 234 234 235
265 11 354 312 296 293 297 297 283 277 290 286 224 220 265 285 277 255 239 241 252 253 257 74 81 80 76 68 59 58 61 58 53 48 46 49 51 51 52 53 54 55 54 53 51 47 43 39 38 38 38 38 36 33 31 29 24 13 360 347 334 322 312 305 298 293 289 289 289 288 288 287 285 284 282 279 276 273 269 264 260 255 251 248 246 244 243 242 243 242 242 241 240 238 236 236 237
283 49 2 337 313 297 295 285 278 284 297 286 200 192 257 285 286 165 177 226 247 230 89 90 88 78 70 64 61 61 60 59 57 54 51 53 55 52 51 52 52 53 52 51 50 48 45 41 39 37 35 35 33 32 32 29 26 23 16 8 359 348 334 322 313 303 297 296 295 293 292 291 290 288 286 284 282 279 275 270 266 260 255 251 248 247 245 243 243 243 243 242 241 240 239 237 237
70 82 318 300 250 261 260 263 279 285 281 272 204 182 245 294 298 147 185 241 224 114 97 88 87 80 73 69 67 65 62 58 58 61 58 54 54 52 51 52 53 53 49 47 46 44 42 39 37 35 34 34 33 32 31 28 25 24 21 15 10 3 351 336 325 315 308 304 300 300 300 298 295 293 291 289 286 283 280 276 271 266 261 256 252 250 247 244 243 243 243 243 243 242 240 238 237
61 250 282 274 244 239 239 246 271 270 267 272 210 186 215 299 347 144 185 272 92 102 88 73 77 79 79 75 68 61 58 59 62 64 61 57 54 52 50 51 50 49 46 43 41 38 37 36 33 31 31 31 32 31 30 28 26 24 20 15 10 5 357 348 338 328 317 307 302 301 303 303 300 297 295 293 290 287 284 281 277 272 267 261 255 252 250 246 244 243 243 243 243 242 242 241 238
245 261 287 296 269 233 231 221 203 247 270 304 175 184 210 242 224 89 61 59 59 72 77 77 76 78 80 78 69 60 54 57 62 62 59 55 52 49 48 46 44 42 39 36 34 34 34 34 33 31 29 28 27 26 25 24 23 21 18 13 7 1 354 348 342 335 326 314 305 301 301 303 302 301 299 298 296 293 290 286 283 278 272 266 260 256 253 250 247 245 244 243 242 242 242 241 238
214 245 257 287 292 270 259 246 223 252 266 63 94 196 226 241 259 272 241 88 69 66 72 82 85 81 78 75 72 67 61 59 59 58 55 52 47 44 43 41 39 36 33 31 29 29 29 29 29 27 26 24 22 21 19 17 14 12 10 5 360 354 349 343 337 332 326 317 310 304 302 302 303 302 302 302 300 298 295 291 287 284 279 275 269 263 258 254 250 247 245 245 243 242 242 241 239
190 211 223 251 287 287 276 275 270 269 262 101 64 311 263 264 275 247 228 85 75 76 78 82 86 83 78 77 76 72 67 63 61 58 54 51 46 42 40 38 38 37 35 33 30 27 25 23 21 19 18 16 14 13 12 10 8 6 3 358 352 346 342 337 331 325 320 315 309 304 302 301 301 302 303 303 302 299 297 295 292 288 285 281 276 271 265 259 253 249 247 246 245 244 244 242 241
200 206 232 246 261 266 271 278 273 277 290 248 194 221 274 295 40 99 89 76 78 79 82 85 85 86 85 78 71 66 63 62 62 60 54 49 44 40 39 38 37 36 33 30 28 26 23 20 18 15 13 11 9 8 7 6 5 3 359 354 348 343 339 334 328 323 318 313 308 302 299 299 299 301 301 300 299 299 298 296 295 291 288 285 280 276 271 264 258 252 249 247 246 245 244 244 242
212 163 231 245 252 252 259 272 276 292 302 272 222 233 269 292 252 161 98 80 79 76 79 82 81 86 87 74 67 65 62 60 57 54 50 45 40 37 34 31 27 24 21 20 20 20 19 18 16 13 10 8 8 8 7 6 5 2 358 353 349 345 342 339 334 330 325 319 313 307 302 300 300 301 299 296 295 297 298 297 295 293 290 287 283 279 275 270 264 258 253 250 248 245 245 244 243
124 148 221 245 327 284 261 268 274 275 275 265 251 261 263 274 260 208 121 83 77 75 72 71 69 74 76 68 62 58 54 50 46 43 39 36 32 28 23 18 15 13 12 14 13 14 15 14 12 11 9 7 7 6 5 4 4 3 360 356 354 351 350 349 345 340 334 328 322 317 310 306 303 301 299 295 294 296 298 297 295 293 291 289 285 282 279 275 270 263 258 255 251 248 246 246 244
174 199 276 17 14 316 250 264 271 256 259 259 254 264 268 275 276 152 113 89 74 72 63 62 57 54 57 54 47 44 40 34 30 26 24 22 20 18 16 14 12 10 9 8 7 7 7 7 7 7 6 6 5 4 2 1 1 1 1 360 357 355 355 354 353 350 344 339 333 329 323 317 311 306 302 298 295 296 297 295 294 293 292 290 288 285 282 278 273 268 264 261 256 251 248 248 246
291 260 355 1 250 251 227 228 247 244 253 256 238 253 264 259 258 209 129 109 88 77 68 64 56 48 49 44 36 33 26 21 18 14 12 11 11 12 13 13 11 9 7 5 3 3 2 1 1 1 2 3 3 3 3 2 360 358 358 358 357 357 356 356 355 355 352 349 344 340 335 329 323 316 310 304 301 299 297 294 293 293 292 291 289 287 285 281 276 273 270 266 261 255 251 250 249
30 297 332 16 281 273 249 218 340 246 253 262 238 245 255 252 267 272 159 115 110 105 91 78 71 64 54 42 34 24 16 12 9 7 6 5 6 7 7 8 8 7 5 3 1 1 2 2 1 1 1 0 359 359 359 358 357 355 352 350 350 351 353 354 355 354 353 351 348 345 341 338 333 327 320 313 309 306 301 295 292 290 290 289 289 288 287 284 280 277 274 270 266 261 256 253 253
173 217 221 183 176 275 276 244 198 225 251 258 252 251 242 247 293 308 112 113 116 120 117 112 99 83 69 51 34 16 8 2 359 0 359 359 1 360 360 1 1 2 1 359 357 356 355 355 354 354 352 350 350 349 350 351 352 351 348 344 342 342 344 347 348 348 349 348 346 344 341 338 336 333 329 323 318 315 310 302 295 290 286 285 286 286 286 285 283 281 278 274 270 266 261 258 257
218 221 207 211 210 210 258 248 206 194 229 239 253 260 246 245 3 78 112 115 113 117 119 120 119 118 120 105 42 13 8 357 356 358 356 357 357 354 354 355 355 356 355 354 353 349 345 344 343 343 344 346 347 347 348 349 348 347 346 342 338 336 337 339 340 341 341 342 342 341 338 336 333 331 328 325 322 319 315 310 303 296 289 284 282 281 282 283 283 282 281 278 274 269 265 263 262